| time (UTC) | temp C | wind direction | speed KPH | gust KPH | rain 1hr cm | rain 24hr cm | rain mn cm | humidity % | barometer mb |
| 20260510164556 | 20 | 270 | 4.8 | 9.7 | 0.00 | 0.03 | 0.03 | 61 | 1013.0 |
| 20260510164052 | 20 | 312 | 4.8 | 9.7 | 0.00 | 0.03 | 0.03 | 61 | 1013.5 |
| 20260510163548 | 20 | 280 | 4.8 | 8.0 | 0.00 | 0.03 | 0.03 | 63 | 1013.4 |
| 20260510163044 | 20 | 192 | 3.2 | 4.8 | 0.00 | 0.03 | 0.03 | 62 | 1013.2 |
| 20260510162539 | 20 | 308 | 11.3 | 20.9 | 0.00 | 0.03 | 0.03 | 60 | 1013.4 |
| 20260510162036 | 20 | 280 | 3.2 | 9.7 | 0.00 | 0.03 | 0.03 | 63 | 1013.2 |
| 20260510161532 | 20 | 267 | 1.6 | 4.8 | 0.00 | 0.03 | 0.03 | 61 | 1013.1 |
| 20260510161029 | 20 | 175 | 0.0 | 0.0 | 0.00 | 0.03 | 0.03 | 61 | 1013.1 |
| 20260510160526 | 19 | 284 | 8.0 | 9.7 | 0.00 | 0.03 | 0.03 | 64 | 1013.2 |
| 20260510160025 | 20 | 288 | 9.7 | 14.5 | 0.00 | 0.03 | 0.03 | 62 | 1013.0 |
| 20260510155521 | 19 | 312 | 4.8 | 9.7 | 0.00 | 0.03 | 0.03 | 64 | 1013.4 |
| 20260510155013 | 19 | 305 | 11.3 | 12.9 | 0.00 | 0.03 | 0.03 | 63 | 1013.1 |
| 20260510154509 | 19 | 358 | 0.0 | 3.2 | 0.00 | 0.03 | 0.03 | 64 | 1013.2 |
| 20260510154008 | 19 | 266 | 0.0 | 0.0 | 0.00 | 0.03 | 0.03 | 64 | 1013.4 |
| 20260510153504 | 20 | 289 | 0.0 | 0.0 | 0.00 | 0.03 | 0.03 | 67 | 1013.2 |
| 20260510153001 | 20 | 299 | 0.0 | 0.0 | 0.00 | 0.03 | 0.03 | 66 | 1013.4 |
| 20260510152458 | 19 | 1 | 0.0 | 0.0 | 0.00 | 0.03 | 0.03 | 69 | 1013.5 |
| 20260510151954 | 18 | 287 | 1.6 | 1.6 | 0.00 | 0.03 | 0.03 | 70 | 1013.1 |
| 20260510151451 | 18 | 174 | 0.0 | 0.0 | 0.00 | 0.03 | 0.03 | 71 | 1013.0 |
| 20260510150948 | 18 | 183 | 1.6 | 3.2 | 0.00 | 0.03 | 0.03 | 71 | 1013.1 |
| 20260510150444 | 18 | 280 | 0.0 | 0.0 | 0.00 | 0.03 | 0.03 | 73 | 1013.4 |
| 20260510145939 | 18 | 272 | 1.6 | 3.2 | 0.00 | 0.03 | 0.03 | 74 | 1013.2 |
| 20260510145431 | 17 | 174 | 0.0 | 0.0 | 0.00 | 0.03 | 0.03 | 76 | 1013.2 |
| 20260510144927 | 17 | 208 | 3.2 | 8.0 | 0.00 | 0.03 | 0.03 | 77 | 1013.4 |
| 20260510144424 | 17 | 193 | 1.6 | 4.8 | 0.00 | 0.03 | 0.03 | 78 | 1013.2 |
| 20260510143924 | 17 | 225 | 0.0 | 0.0 | 0.00 | 0.03 | 0.03 | 78 | 1013.4 |
| 20260510143421 | 17 | 237 | 0.0 | 0.0 | 0.00 | 0.03 | 0.03 | 78 | 1013.5 |
| 20260510142918 | 16 | 158 | 0.0 | 0.0 | 0.00 | 0.03 | 0.03 | 82 | 1013.1 |
| 20260510142415 | 16 | 211 | 1.6 | 3.2 | 0.00 | 0.03 | 0.03 | 82 | 1013.1 |
| 20260510141912 | 16 | 188 | 1.6 | 4.8 | 0.00 | 0.03 | 0.03 | 82 | 1013.4 |
| 20260510141409 | 16 | 200 | 0.0 | 1.6 | 0.00 | 0.03 | 0.03 | 83 | 1013.1 |
| 20260510140906 | 15 | 216 | 1.6 | 3.2 | 0.00 | 0.03 | 0.03 | 81 | 1013.4 |
| 20260510140402 | 16 | 238 | 0.0 | 0.0 | 0.00 | 0.03 | 0.03 | 84 | 1013.0 |
| 20260510135900 | 15 | 197 | 0.0 | 0.0 | 0.00 | 0.03 | 0.03 | 84 | 1013.0 |
| 20260510135357 | 15 | 207 | 0.0 | 0.0 | 0.00 | 0.03 | 0.03 | 85 | 1012.8 |
| 20260510134854 | 15 | 170 | 0.0 | 0.0 | 0.00 | 0.03 | 0.03 | 86 | 1012.9 |
| 20260510134351 | 15 | 211 | 8.0 | 9.7 | 0.00 | 0.03 | 0.03 | 86 | 1012.9 |
| 20260510133847 | 15 | 288 | 0.0 | 1.6 | 0.00 | 0.03 | 0.03 | 90 | 1012.8 |
| 20260510133343 | 14 | 176 | 0.0 | 1.6 | 0.00 | 0.03 | 0.03 | 90 | 1013.0 |
| 20260510132839 | 14 | 209 | 4.8 | 4.8 | 0.00 | 0.03 | 0.03 | 91 | 1013.1 |
| 20260510132337 | 13 | 267 | 0.0 | 0.0 | 0.00 | 0.03 | 0.03 | 94 | 1013.1 |
| 20260510131834 | 13 | 191 | 1.6 | 3.2 | 0.00 | 0.03 | 0.03 | 96 | 1013.0 |
| 20260510131332 | 13 | 253 | 0.0 | 0.0 | 0.00 | 0.03 | 0.03 | 96 | 1013.1 |
| 20260510130828 | 13 | 196 | 0.0 | 0.0 | 0.00 | 0.03 | 0.03 | 96 | 1013.2 |
| 20260510130325 | 13 | 202 | 0.0 | 0.0 | 0.00 | 0.03 | 0.03 | 96 | 1013.2 |
| 20260510125821 | 13 | 270 | 0.0 | 0.0 | 0.00 | 0.03 | 0.03 | 98 | 1013.1 |
| 20260510125317 | 12 | 209 | 0.0 | 0.0 | 0.00 | 0.03 | 0.03 | 98 | 1013.4 |
| 20260510124815 | 12 | 221 | 0.0 | 0.0 | 0.00 | 0.03 | 0.03 | 98 | 1013.4 |
| 20260510124312 | 12 | 267 | 0.0 | 0.0 | 0.00 | 0.03 | 0.03 | 98 | 1013.1 |
| 20260510123807 | 12 | 308 | 0.0 | 0.0 | 0.00 | 0.03 | 0.03 | 98 | 1012.9 |
| 20260510123303 | 11 | 168 | 0.0 | 0.0 | 0.00 | 0.03 | 0.03 | 98 | 1012.9 |
| 20260510122759 | 11 | 294 | 0.0 | 0.0 | 0.00 | 0.03 | 0.03 | 98 | 1012.8 |
| 20260510122255 | 11 | 162 | 0.0 | 0.0 | 0.00 | 0.03 | 0.03 | 98 | 1012.6 |
| 20260510121752 | 11 | 203 | 0.0 | 0.0 | 0.00 | 0.03 | 0.03 | 99 | 1012.5 |
| 20260510121250 | 11 | 149 | 0.0 | 0.0 | 0.00 | 0.03 | 0.03 | 98 | 1012.4 |
| 20260510120747 | 11 | 66 | 0.0 | 0.0 | 0.00 | 0.03 | 0.03 | 98 | 1012.5 |
| 20260510120243 | 11 | 50 | 0.0 | 0.0 | 0.00 | 0.03 | 0.03 | 98 | 1012.6 |
| 20260510115739 | 10 | 278 | 0.0 | 0.0 | 0.00 | 0.03 | 0.03 | 98 | 1012.5 |
| 20260510115237 | 10 | 131 | 0.0 | 0.0 | 0.00 | 0.03 | 0.03 | 98 | 1012.4 |
| 20260510114732 | 10 | 158 | 0.0 | 0.0 | 0.00 | 0.03 | 0.03 | 98 | 1012.3 |
| 20260510114230 | 10 | 132 | 0.0 | 0.0 | 0.00 | 0.03 | 0.03 | 98 | 1012.4 |
| 20260510113725 | 10 | 258 | 0.0 | 0.0 | 0.00 | 0.03 | 0.03 | 98 | 1012.2 |
| 20260510113222 | 10 | 41 | 0.0 | 0.0 | 0.00 | 0.03 | 0.03 | 98 | 1012.2 |
| 20260510112718 | 10 | 21 | 0.0 | 0.0 | 0.00 | 0.03 | 0.03 | 98 | 1012.0 |
| 20260510112215 | 10 | 69 | 0.0 | 0.0 | 0.00 | 0.03 | 0.03 | 98 | 1011.9 |
| 20260510111711 | 10 | 76 | 0.0 | 0.0 | 0.00 | 0.03 | 0.03 | 98 | 1011.9 |
| 20260510111209 | 10 | 58 | 0.0 | 0.0 | 0.00 | 0.03 | 0.03 | 98 | 1012.0 |
| 20260510110708 | 10 | 124 | 0.0 | 0.0 | 0.00 | 0.03 | 0.03 | 98 | 1011.9 |
| 20260510110207 | 10 | 128 | 0.0 | 0.0 | 0.00 | 0.03 | 0.03 | 98 | 1012.1 |
| 20260510105706 | 10 | 129 | 0.0 | 0.0 | 0.00 | 0.03 | 0.03 | 98 | 1012.0 |
| 20260510105206 | 9 | 129 | 0.0 | 0.0 | 0.00 | 0.03 | 0.03 | 98 | 1012.0 |
| 20260510104703 | 9 | 131 | 0.0 | 0.0 | 0.00 | 0.03 | 0.03 | 98 | 1012.0 |
| 20260510104201 | 9 | 126 | 0.0 | 0.0 | 0.00 | 0.03 | 0.03 | 98 | 1011.8 |
| 20260510103657 | 9 | 127 | 0.0 | 0.0 | 0.00 | 0.03 | 0.03 | 98 | 1011.7 |
| 20260510103154 | 10 | 144 | 0.0 | 0.0 | 0.00 | 0.03 | 0.03 | 98 | 1011.9 |
| 20260510102654 | 9 | 69 | 0.0 | 0.0 | 0.00 | 0.03 | 0.03 | 98 | 1011.8 |
| 20260510102150 | 9 | 69 | 0.0 | 0.0 | 0.00 | 0.03 | 0.03 | 98 | 1011.6 |
| 20260510101648 | 9 | 47 | 0.0 | 0.0 | 0.00 | 0.03 | 0.03 | 98 | 1011.5 |
| 20260510101146 | 9 | 56 | 0.0 | 0.0 | 0.00 | 0.03 | 0.03 | 98 | 1011.6 |
| 20260510100642 | 8 | 40 | 0.0 | 0.0 | 0.00 | 0.03 | 0.03 | 98 | 1011.4 |
| 20260510100139 | 9 | 86 | 0.0 | 0.0 | 0.00 | 0.03 | 0.03 | 98 | 1011.6 |
| 20260510095635 | 9 | 68 | 0.0 | 0.0 | 0.00 | 0.03 | 0.03 | 98 | 1011.6 |
| 20260510095130 | 9 | 85 | 0.0 | 0.0 | 0.00 | 0.03 | 0.03 | 98 | 1011.7 |
| 20260510094629 | 9 | 57 | 0.0 | 0.0 | 0.00 | 0.03 | 0.03 | 98 | 1011.5 |
| 20260510094125 | 9 | 72 | 0.0 | 0.0 | 0.00 | 0.03 | 0.03 | 98 | 1011.5 |
| 20260510093621 | 9 | 70 | 0.0 | 0.0 | 0.00 | 0.03 | 0.03 | 98 | 1011.6 |
| 20260510093118 | 9 | 80 | 0.0 | 0.0 | 0.00 | 0.03 | 0.03 | 98 | 1011.5 |
| 20260510092615 | 9 | 80 | 0.0 | 0.0 | 0.00 | 0.03 | 0.03 | 98 | 1011.4 |
| 20260510092115 | 9 | 93 | 0.0 | 0.0 | 0.00 | 0.03 | 0.03 | 98 | 1011.7 |
| 20260510091612 | 9 | 95 | 0.0 | 0.0 | 0.00 | 0.03 | 0.03 | 98 | 1011.5 |
| 20260510091108 | 9 | 72 | 0.0 | 0.0 | 0.00 | 0.03 | 0.03 | 98 | 1011.6 |
| 20260510090605 | 9 | 62 | 0.0 | 0.0 | 0.00 | 0.03 | 0.03 | 98 | 1011.6 |
| 20260510090101 | 9 | 92 | 0.0 | 0.0 | 0.00 | 0.03 | 0.03 | 98 | 1011.6 |
| 20260510085555 | 9 | 102 | 0.0 | 0.0 | 0.00 | 0.03 | 0.03 | 98 | 1011.7 |
| 20260510085052 | 9 | 108 | 0.0 | 0.0 | 0.00 | 0.03 | 0.03 | 98 | 1011.9 |
| 20260510084548 | 9 | 104 | 0.0 | 0.0 | 0.00 | 0.03 | 0.03 | 98 | 1011.8 |
| 20260510084045 | 9 | 87 | 0.0 | 0.0 | 0.00 | 0.03 | 0.03 | 98 | 1011.9 |
| 20260510083542 | 9 | 106 | 0.0 | 0.0 | 0.00 | 0.03 | 0.03 | 98 | 1011.9 |
| 20260510083038 | 9 | 116 | 0.0 | 0.0 | 0.00 | 0.03 | 0.03 | 98 | 1012.2 |
| 20260510082535 | 9 | 119 | 0.0 | 0.0 | 0.00 | 0.03 | 0.03 | 98 | 1011.8 |
| 20260510082030 | 9 | 125 | 0.0 | 0.0 | 0.00 | 0.03 | 0.03 | 98 | 1012.1 |
| 20260510081526 | 9 | 119 | 0.0 | 0.0 | 0.00 | 0.03 | 0.03 | 98 | 1012.0 |
| 20260510081022 | 9 | 96 | 0.0 | 0.0 | 0.00 | 0.03 | 0.03 | 98 | 1012.2 |
| 20260510080520 | 9 | 126 | 0.0 | 0.0 | 0.00 | 0.03 | 0.03 | 98 | 1012.4 |
| 20260510080018 | 9 | 115 | 0.0 | 0.0 | 0.00 | 0.03 | 0.03 | 98 | 1012.0 |
| 20260510075515 | 9 | 60 | 0.0 | 0.0 | 0.00 | 0.03 | 0.03 | 98 | 1012.0 |
| 20260510075012 | 9 | 32 | 0.0 | 0.0 | 0.00 | 0.03 | 0.03 | 98 | 1012.2 |
| 20260510074510 | 9 | 55 | 0.0 | 0.0 | 0.00 | 0.03 | 0.03 | 98 | 1012.1 |
| 20260510074005 | 9 | 5 | 0.0 | 0.0 | 0.00 | 0.03 | 0.03 | 98 | 1011.8 |
| 20260510073501 | 9 | 19 | 3.2 | 3.2 | 0.00 | 0.03 | 0.03 | 98 | 1011.9 |
| 20260510072957 | 9 | 68 | 0.0 | 0.0 | 0.00 | 0.03 | 0.03 | 98 | 1011.3 |
| 20260510072454 | 8 | 66 | 0.0 | 0.0 | 0.00 | 0.03 | 0.03 | 97 | 1011.2 |
| 20260510071950 | 8 | 101 | 0.0 | 0.0 | 0.00 | 0.03 | 0.03 | 97 | 1011.1 |
| 20260510071446 | 8 | 106 | 0.0 | 0.0 | 0.00 | 0.03 | 0.03 | 97 | 1011.3 |
| 20260510070944 | 9 | 93 | 0.0 | 0.0 | 0.00 | 0.03 | 0.03 | 97 | 1011.2 |
| 20260510070442 | 8 | 95 | 0.0 | 0.0 | 0.00 | 0.03 | 0.03 | 97 | 1011.1 |
| 20260510065937 | 9 | 61 | 0.0 | 0.0 | 0.00 | 0.03 | 0.03 | 97 | 1011.2 |
| 20260510065434 | 9 | 74 | 0.0 | 0.0 | 0.00 | 0.03 | 0.03 | 97 | 1011.4 |
| 20260510064930 | 9 | 100 | 0.0 | 0.0 | 0.00 | 0.03 | 0.03 | 97 | 1011.4 |
| 20260510064428 | 9 | 108 | 0.0 | 0.0 | 0.00 | 0.03 | 0.03 | 97 | 1011.5 |
| 20260510063925 | 9 | 114 | 0.0 | 0.0 | 0.00 | 0.03 | 0.03 | 97 | 1011.4 |
| 20260510063420 | 9 | 108 | 0.0 | 0.0 | 0.00 | 0.03 | 0.03 | 97 | 1011.4 |
| 20260510062919 | 9 | 120 | 0.0 | 0.0 | 0.00 | 0.03 | 0.03 | 97 | 1011.6 |
| 20260510062414 | 9 | 93 | 0.0 | 0.0 | 0.00 | 0.03 | 0.03 | 97 | 1011.7 |
| 20260510061909 | 9 | 292 | 0.0 | 0.0 | 0.00 | 0.03 | 0.03 | 97 | 1011.8 |
| 20260510061406 | 9 | 336 | 0.0 | 0.0 | 0.00 | 0.03 | 0.03 | 97 | 1011.7 |
| 20260510060902 | 9 | 40 | 0.0 | 0.0 | 0.00 | 0.03 | 0.03 | 97 | 1011.5 |
| 20260510060359 | 9 | 313 | 0.0 | 0.0 | 0.00 | 0.03 | 0.03 | 97 | 1011.7 |
| 20260510055855 | 9 | 251 | 0.0 | 0.0 | 0.00 | 0.03 | 0.03 | 97 | 1011.6 |
| 20260510055356 | 9 | 343 | 0.0 | 0.0 | 0.00 | 0.03 | 0.03 | 97 | 1011.4 |
| 20260510054854 | 9 | 28 | 0.0 | 0.0 | 0.00 | 0.03 | 0.03 | 97 | 1011.3 |
| 20260510054350 | 9 | 301 | 0.0 | 0.0 | 0.18 | 0.03 | 0.03 | 97 | 1011.3 |
| 20260510053845 | 10 | 300 | 0.0 | 0.0 | 0.18 | 0.03 | 0.03 | 97 | 1011.3 |
| 20260510053341 | 10 | 317 | 0.0 | 0.0 | 0.00 | 0.00 | 0.00 | 97 | 1011.3 |
| 20260510052837 | 10 | 138 | 0.0 | 0.0 | 0.00 | 0.00 | 0.00 | 97 | 1011.2 |
| 20260510052333 | 10 | 137 | 0.0 | 0.0 | 0.00 | 0.00 | 0.00 | 97 | 1011.1 |
| 20260510051830 | 10 | 135 | 0.0 | 0.0 | 0.00 | 0.00 | 0.00 | 97 | 1011.1 |
| 20260510051326 | 10 | 130 | 0.0 | 0.0 | 0.00 | 0.00 | 0.00 | 97 | 1011.2 |
| 20260510050823 | 10 | 147 | 0.0 | 0.0 | 0.00 | 0.00 | 0.00 | 96 | 1011.5 |
| 20260510050320 | 10 | 143 | 0.0 | 0.0 | 0.00 | 0.00 | 0.00 | 96 | 1011.3 |
| 20260510045817 | 10 | 132 | 0.0 | 0.0 | 0.00 | 0.00 | 0.00 | 96 | 1011.2 |
| 20260510045314 | 10 | 264 | 0.0 | 0.0 | 0.00 | 0.00 | 0.00 | 96 | 1011.1 |
| 20260510044811 | 10 | 134 | 0.0 | 0.0 | 0.00 | 0.00 | 0.00 | 96 | 1011.4 |
| 20260510044308 | 10 | 78 | 0.0 | 0.0 | 0.00 | 0.00 | 0.00 | 96 | 1011.3 |
| 20260510043804 | 10 | 70 | 0.0 | 0.0 | 0.00 | 0.00 | 0.00 | 96 | 1011.5 |
| 20260510043300 | 10 | 100 | 0.0 | 0.0 | 0.00 | 0.00 | 0.00 | 96 | 1011.3 |
| 20260510042758 | 10 | 120 | 0.0 | 0.0 | 0.00 | 0.00 | 0.00 | 96 | 1011.3 |
| 20260510042253 | 10 | 119 | 0.0 | 0.0 | 0.00 | 0.00 | 0.00 | 96 | 1011.4 |
| 20260510041750 | 10 | 118 | 0.0 | 0.0 | 0.00 | 0.00 | 0.00 | 96 | 1011.2 |
| 20260510041248 | 10 | 118 | 0.0 | 0.0 | 0.00 | 0.00 | 0.00 | 96 | 1011.6 |
| 20260510040745 | 10 | 119 | 0.0 | 0.0 | 0.00 | 0.00 | 0.00 | 96 | 1011.3 |
| 20260510040242 | 10 | 127 | 0.0 | 0.0 | 0.00 | 0.00 | 0.00 | 96 | 1011.4 |
| 20260510035737 | 10 | 132 | 0.0 | 0.0 | 0.00 | 0.79 | 0.79 | 96 | 1011.5 |
| 20260510035233 | 10 | 141 | 0.0 | 0.0 | 0.00 | 0.79 | 0.79 | 96 | 1011.5 |
| 20260510034729 | 10 | 152 | 0.0 | 0.0 | 0.00 | 0.79 | 0.79 | 96 | 1011.3 |
| 20260510034228 | 10 | 98 | 0.0 | 0.0 | 0.00 | 0.79 | 0.79 | 96 | 1011.1 |
| 20260510033722 | 10 | 97 | 0.0 | 0.0 | 0.00 | 0.79 | 0.79 | 96 | 1011.1 |
| 20260510033221 | 10 | 121 | 0.0 | 0.0 | 0.00 | 0.79 | 0.79 | 96 | 1011.1 |
| 20260510032717 | 10 | 123 | 0.0 | 0.0 | 0.00 | 0.79 | 0.79 | 96 | 1011.3 |
| 20260510032213 | 10 | 123 | 0.0 | 0.0 | 0.00 | 0.79 | 0.79 | 95 | 1011.0 |
| 20260510031707 | 10 | 106 | 0.0 | 0.0 | 0.00 | 0.79 | 0.79 | 95 | 1011.2 |
| 20260510031204 | 10 | 144 | 0.0 | 0.0 | 0.00 | 0.79 | 0.79 | 95 | 1011.1 |
| 20260510030658 | 10 | 134 | 0.0 | 0.0 | 0.00 | 0.79 | 0.79 | 96 | 1011.1 |
| 20260510030156 | 10 | 91 | 0.0 | 0.0 | 0.00 | 0.79 | 0.79 | 95 | 1011.2 |
| 20260510025653 | 10 | 129 | 0.0 | 0.0 | 0.00 | 0.79 | 0.79 | 95 | 1010.9 |
| 20260510025150 | 10 | 110 | 0.0 | 0.0 | 0.00 | 0.79 | 0.79 | 96 | 1010.9 |
| 20260510024647 | 10 | 138 | 0.0 | 0.0 | 0.00 | 0.79 | 0.79 | 95 | 1011.0 |
| 20260510024143 | 10 | 120 | 0.0 | 0.0 | 0.00 | 0.79 | 0.79 | 95 | 1011.2 |
| 20260510023639 | 10 | 139 | 0.0 | 0.0 | 0.00 | 0.79 | 0.79 | 95 | 1010.9 |
| 20260510023137 | 10 | 141 | 0.0 | 0.0 | 0.00 | 0.79 | 0.79 | 95 | 1010.9 |
| 20260510022636 | 10 | 123 | 0.0 | 0.0 | 0.00 | 0.79 | 0.79 | 95 | 1011.1 |
| 20260510022132 | 10 | 148 | 0.0 | 0.0 | 0.00 | 0.79 | 0.79 | 95 | 1011.0 |
| 20260510021622 | 10 | 190 | 0.0 | 0.0 | 0.00 | 0.79 | 0.79 | 95 | 1011.1 |
| 20260510021120 | 10 | 166 | 0.0 | 0.0 | 0.00 | 0.79 | 0.79 | 95 | 1011.2 |
| 20260510020613 | 10 | 135 | 0.0 | 0.0 | 0.00 | 0.79 | 0.79 | 95 | 1011.2 |
| 20260510020109 | 10 | 133 | 0.0 | 0.0 | 0.00 | 0.79 | 0.79 | 95 | 1011.0 |
| 20260510015605 | 10 | 106 | 0.0 | 0.0 | 0.00 | 0.79 | 0.79 | 95 | 1011.2 |
| 20260510015102 | 10 | 82 | 0.0 | 0.0 | 0.00 | 0.79 | 0.79 | 95 | 1011.1 |
| 20260510014557 | 10 | 83 | 0.0 | 0.0 | 0.00 | 0.79 | 0.79 | 95 | 1010.8 |
| 20260510014055 | 10 | 109 | 0.0 | 0.0 | 0.00 | 0.79 | 0.79 | 94 | 1011.1 |
| 20260510013549 | 10 | 133 | 0.0 | 0.0 | 0.00 | 0.79 | 0.79 | 94 | 1011.0 |
| 20260510013046 | 11 | 158 | 0.0 | 0.0 | 0.00 | 0.79 | 0.79 | 94 | 1011.1 |
| 20260510012539 | 11 | 160 | 0.0 | 0.0 | 0.00 | 0.79 | 0.79 | 94 | 1010.9 |
| 20260510012036 | 11 | 152 | 0.0 | 0.0 | 0.00 | 0.79 | 0.79 | 94 | 1010.8 |
| 20260510011536 | 11 | 120 | 0.0 | 0.0 | 0.00 | 0.79 | 0.79 | 94 | 1010.9 |
| 20260510011032 | 11 | 138 | 0.0 | 0.0 | 0.00 | 0.79 | 0.79 | 94 | 1011.0 |
| 20260510010529 | 11 | 144 | 0.0 | 0.0 | 0.00 | 0.79 | 0.79 | 94 | 1011.0 |
| 20260510010026 | 11 | 138 | 0.0 | 0.0 | 0.00 | 0.79 | 0.79 | 94 | 1010.8 |
| 20260510005521 | 11 | 112 | 0.0 | 0.0 | 0.00 | 0.79 | 0.79 | 94 | 1010.9 |
| 20260510005019 | 11 | 193 | 0.0 | 0.0 | 0.00 | 0.79 | 0.79 | 94 | 1010.5 |
| 20260510004516 | 11 | 149 | 0.0 | 0.0 | 0.00 | 0.79 | 0.79 | 94 | 1010.6 |
| 20260510004014 | 11 | 265 | 0.0 | 0.0 | 0.00 | 0.79 | 0.79 | 93 | 1010.5 |
| 20260510003510 | 11 | 129 | 0.0 | 0.0 | 0.00 | 0.79 | 0.79 | 93 | 1010.2 |
| 20260510003006 | 11 | 139 | 0.0 | 0.0 | 0.00 | 0.79 | 0.79 | 93 | 1010.3 |
| 20260510002502 | 11 | 153 | 0.0 | 0.0 | 0.00 | 0.79 | 0.79 | 93 | 1010.3 |
| 20260510001959 | 11 | 129 | 0.0 | 0.0 | 0.00 | 0.79 | 0.79 | 93 | 1010.1 |
| 20260510001456 | 11 | 130 | 0.0 | 0.0 | 0.00 | 0.79 | 0.79 | 92 | 1010.1 |
| 20260510000954 | 11 | 139 | 0.0 | 0.0 | 0.00 | 0.79 | 0.79 | 92 | 1010.2 |
| 20260510000449 | 11 | 134 | 0.0 | 0.0 | 0.00 | 0.79 | 0.79 | 92 | 1010.1 |
| 20260509235946 | 11 | 148 | 0.0 | 0.0 | 0.00 | 0.79 | 0.79 | 92 | 1010.4 |
| 20260509235443 | 11 | 152 | 0.0 | 0.0 | 0.00 | 0.79 | 0.79 | 91 | 1010.2 |
| 20260509234940 | 11 | 150 | 0.0 | 0.0 | 0.00 | 0.79 | 0.79 | 91 | 1010.5 |
| 20260509234436 | 12 | 170 | 0.0 | 0.0 | 0.00 | 0.79 | 0.79 | 91 | 1010.2 |
| 20260509233934 | 12 | 160 | 0.0 | 0.0 | 0.00 | 0.79 | 0.79 | 90 | 1010.1 |
| 20260509233432 | 12 | 145 | 0.0 | 0.0 | 0.00 | 0.79 | 0.79 | 90 | 1010.0 |
| 20260509232927 | 12 | 157 | 0.0 | 0.0 | 0.00 | 0.79 | 0.79 | 89 | 1010.0 |
| 20260509232425 | 12 | 172 | 0.0 | 0.0 | 0.00 | 0.79 | 0.79 | 88 | 1010.1 |
| 20260509231921 | 12 | 161 | 0.0 | 0.0 | 0.00 | 0.79 | 0.79 | 88 | 1009.9 |
| 20260509231418 | 13 | 174 | 0.0 | 0.0 | 0.00 | 0.79 | 0.79 | 87 | 1009.9 |
| 20260509230916 | 13 | 169 | 0.0 | 0.0 | 0.00 | 0.79 | 0.79 | 87 | 1009.9 |
| 20260509230412 | 13 | 153 | 0.0 | 0.0 | 0.00 | 0.79 | 0.79 | 88 | 1009.9 |
| 20260509225908 | 12 | 200 | 0.0 | 0.0 | 0.00 | 0.79 | 0.79 | 87 | 1009.8 |
| 20260509225405 | 13 | 153 | 0.0 | 0.0 | 0.00 | 0.79 | 0.79 | 87 | 1009.9 |
| 20260509224901 | 13 | 149 | 0.0 | 0.0 | 0.00 | 0.79 | 0.79 | 87 | 1009.9 |
| 20260509224357 | 13 | 166 | 0.0 | 0.0 | 0.00 | 0.79 | 0.79 | 88 | 1010.1 |
| 20260509223854 | 13 | 141 | 0.0 | 0.0 | 0.00 | 0.79 | 0.79 | 88 | 1010.1 |
| 20260509223351 | 13 | 205 | 0.0 | 0.0 | 0.00 | 0.79 | 0.79 | 88 | 1010.1 |
| 20260509222849 | 13 | 146 | 0.0 | 0.0 | 0.00 | 0.79 | 0.79 | 88 | 1010.0 |
| 20260509222348 | 13 | 143 | 0.0 | 0.0 | 0.00 | 0.79 | 0.79 | 88 | 1009.9 |
| 20260509221844 | 13 | 156 | 0.0 | 0.0 | 0.00 | 0.79 | 0.79 | 88 | 1010.0 |
| 20260509221342 | 13 | 210 | 0.0 | 0.0 | 0.00 | 0.79 | 0.79 | 88 | 1010.0 |
| 20260509220842 | 13 | 149 | 0.0 | 0.0 | 0.00 | 0.79 | 0.79 | 89 | 1010.0 |
| 20260509220339 | 13 | 151 | 0.0 | 0.0 | 0.00 | 0.79 | 0.79 | 89 | 1009.9 |
| 20260509215834 | 13 | 161 | 0.0 | 0.0 | 0.00 | 0.79 | 0.79 | 89 | 1009.9 |
| 20260509215331 | 13 | 144 | 0.0 | 0.0 | 0.00 | 0.79 | 0.79 | 90 | 1010.0 |
| 20260509214828 | 13 | 165 | 0.0 | 0.0 | 0.00 | 0.79 | 0.79 | 89 | 1010.1 |
| 20260509214325 | 13 | 155 | 0.0 | 0.0 | 0.00 | 0.79 | 0.79 | 90 | 1010.1 |
| 20260509213823 | 13 | 155 | 0.0 | 0.0 | 0.00 | 0.79 | 0.79 | 90 | 1010.2 |
| 20260509213318 | 13 | 135 | 0.0 | 0.0 | 0.00 | 0.79 | 0.79 | 91 | 1010.4 |
| 20260509212816 | 13 | 253 | 0.0 | 0.0 | 0.00 | 0.79 | 0.79 | 91 | 1010.2 |
| 20260509212313 | 13 | 177 | 0.0 | 0.0 | 0.00 | 0.79 | 0.79 | 91 | 1010.5 |
| 20260509211809 | 13 | 21 | 0.0 | 0.0 | 0.00 | 0.79 | 0.79 | 91 | 1010.2 |
| 20260509211305 | 13 | 66 | 0.0 | 0.0 | 0.00 | 0.79 | 0.79 | 93 | 1010.3 |
| 20260509210801 | 13 | 101 | 0.0 | 0.0 | 0.00 | 0.79 | 0.79 | 94 | 1010.4 |
| 20260509210259 | 12 | 102 | 0.0 | 0.0 | 0.00 | 0.79 | 0.79 | 95 | 1010.4 |
| 20260509205758 | 12 | 100 | 0.0 | 0.0 | 0.00 | 0.79 | 0.79 | 94 | 1010.3 |
| 20260509205253 | 12 | 140 | 0.0 | 0.0 | 0.00 | 0.79 | 0.79 | 93 | 1010.4 |
| 20260509204750 | 12 | 122 | 0.0 | 0.0 | 0.00 | 0.79 | 0.79 | 93 | 1010.2 |
| 20260509204246 | 12 | 117 | 0.0 | 0.0 | 0.00 | 0.79 | 0.79 | 93 | 1010.3 |
| 20260509203742 | 11 | 132 | 0.0 | 0.0 | 0.00 | 0.79 | 0.79 | 93 | 1010.4 |
| 20260509203241 | 12 | 122 | 0.0 | 0.0 | 0.13 | 0.79 | 0.79 | 94 | 1010.4 |
| 20260509202736 | 11 | 112 | 0.0 | 0.0 | 0.13 | 0.79 | 0.79 | 94 | 1010.3 |
| 20260509202232 | 11 | 102 | 0.0 | 0.0 | 0.00 | 0.76 | 0.76 | 93 | 1010.3 |
| 20260509201726 | 11 | 117 | 0.0 | 0.0 | 0.00 | 0.76 | 0.76 | 94 | 1010.5 |
| 20260509201223 | 11 | 138 | 0.0 | 0.0 | 0.00 | 0.76 | 0.76 | 93 | 1010.5 |
| 20260509200720 | 11 | 123 | 0.0 | 0.0 | 0.00 | 0.76 | 0.76 | 93 | 1010.5 |
| 20260509200215 | 11 | 145 | 0.0 | 0.0 | 0.00 | 0.76 | 0.76 | 94 | 1010.4 |
| 20260509195712 | 11 | 139 | 0.0 | 0.0 | 0.18 | 0.76 | 0.76 | 93 | 1010.8 |
| 20260509195207 | 11 | 72 | 0.0 | 0.0 | 0.18 | 0.76 | 0.76 | 93 | 1010.8 |
| 20260509194706 | 11 | 133 | 0.0 | 0.0 | 0.13 | 0.74 | 0.74 | 93 | 1010.9 |
| 20260509194203 | 11 | 85 | 0.0 | 0.0 | 0.30 | 0.74 | 0.74 | 93 | 1011.2 |
| 20260509193700 | 11 | 300 | 0.0 | 0.0 | 0.48 | 0.71 | 0.71 | 92 | 1011.2 |
| 20260509193155 | 11 | 303 | 0.0 | 0.0 | 0.48 | 0.69 | 0.69 | 92 | 1011.5 |
| 20260509192652 | 11 | 318 | 0.0 | 0.0 | 0.48 | 0.66 | 0.66 | 92 | 1011.4 |
| 20260509192147 | 11 | 238 | 0.0 | 0.0 | 0.30 | 0.64 | 0.64 | 92 | 1011.7 |
| 20260509191647 | 11 | 348 | 0.0 | 0.0 | 0.30 | 0.58 | 0.58 | 92 | 1011.6 |
| 20260509191144 | 11 | 299 | 0.0 | 0.0 | 0.13 | 0.56 | 0.56 | 92 | 1011.5 |
| 20260509190640 | 11 | 205 | 0.0 | 0.0 | 0.30 | 0.56 | 0.56 | 92 | 1011.6 |
| 20260509190137 | 11 | 219 | 0.0 | 0.0 | 0.30 | 0.53 | 0.53 | 92 | 1011.3 |
| 20260509185635 | 11 | 300 | 4.8 | 8.0 | 0.30 | 0.51 | 0.51 | 92 | 1011.5 |
| 20260509185131 | 11 | 269 | 0.0 | 0.0 | 0.18 | 0.48 | 0.48 | 92 | 1011.8 |
| 20260509184629 | 11 | 298 | 0.0 | 0.0 | 0.30 | 0.48 | 0.48 | 92 | 1011.6 |
| 20260509184126 | 12 | 341 | 0.0 | 0.0 | 0.30 | 0.46 | 0.46 | 92 | 1011.8 |
| 20260509183622 | 12 | 268 | 0.0 | 0.0 | 0.30 | 0.43 | 0.43 | 92 | 1011.8 |
| 20260509183117 | 11 | 286 | 0.0 | 0.0 | 0.13 | 0.41 | 0.41 | 92 | 1011.5 |
| 20260509182613 | 11 | 296 | 0.0 | 0.0 | 0.18 | 0.38 | 0.38 | 92 | 1011.6 |
| 20260509182110 | 12 | 34 | 0.0 | 0.0 | 0.13 | 0.36 | 0.36 | 92 | 1011.7 |
| 20260509181603 | 12 | 351 | 0.0 | 0.0 | 0.30 | 0.36 | 0.36 | 92 | 1011.5 |
| 20260509181100 | 12 | 1 | 0.0 | 0.0 | 0.18 | 0.33 | 0.33 | 92 | 1011.5 |
| 20260509180555 | 12 | 138 | 0.0 | 0.0 | 0.18 | 0.30 | 0.30 | 91 | 1011.3 |
| 20260509180053 | 12 | 119 | 0.0 | 0.0 | 0.48 | 0.30 | 0.30 | 91 | 1011.2 |
| 20260509175548 | 12 | 101 | 0.0 | 0.0 | 0.61 | 0.28 | 0.28 | 91 | 1011.5 |
| 20260509175046 | 12 | 135 | 0.0 | 0.0 | 0.43 | 0.23 | 0.23 | 90 | 1011.8 |
| 20260509174542 | 12 | 173 | 0.0 | 0.0 | 0.48 | 0.20 | 0.20 | 90 | 1011.8 |
| 20260509174037 | 12 | 182 | 0.0 | 0.0 | 0.48 | 0.15 | 0.15 | 89 | 1011.8 |
| 20260509173532 | 12 | 325 | 0.0 | 0.0 | 0.18 | 0.10 | 0.10 | 88 | 1012.0 |
| 20260509173029 | 12 | 261 | 0.0 | 0.0 | 0.13 | 0.08 | 0.08 | 87 | 1012.0 |
| 20260509172526 | 12 | 192 | 0.0 | 0.0 | 0.13 | 0.08 | 0.08 | 86 | 1012.0 |
| 20260509172021 | 12 | 244 | 0.0 | 0.0 | 0.18 | 0.05 | 0.05 | 85 | 1012.0 |
| 20260509171518 | 13 | 195 | 1.6 | 1.6 | 0.18 | 0.05 | 0.05 | 85 | 1011.8 |
| 20260509171015 | 13 | 194 | 1.6 | 11.3 | 0.00 | 0.03 | 0.03 | 84 | 1011.8 |
| 20260509170510 | 13 | 230 | 0.0 | 0.0 | 0.00 | 0.03 | 0.03 | 83 | 1011.6 |
| 20260509170006 | 13 | 269 | 3.2 | 8.0 | 0.00 | 0.03 | 0.03 | 83 | 1011.6 |
| 20260509165504 | 13 | 229 | 0.0 | 0.0 | 0.00 | 0.03 | 0.03 | 83 | 1011.6 |
| 20260509165000 | 13 | 197 | 0.0 | 0.0 | 0.00 | 0.03 | 0.03 | 82 | 1011.8 |